This demonstration page uses our WeatherBlox Daily Observations layout. Learn more.

Left ArrowRight Arrow

41.55636, -103.73856

Hourly Observations for January 26, 2022

Temp ( °F °C ) Dew Point ( °F °C ) Humidity (%) Winds ( mph kmh ) Pressure ( in mb ) Visibility ( mi km ) Precip ( " mm )
12:58 am 00:58 Partly Cloudy with Scattered Snow Showers 14 -10.1 12 -11.1 92 92 SSW 23 37 30.29 1026 2 4 0.00 0.00
1:58 am 01:58 Partly Cloudy with Scattered Snow Showers 15 -9.3 13 -10.3 93 93 SW 15 24 30.25 1024 10 16 0.00 0.00
2:58 am 02:58 Clear 15 -9.2 12 -11.1 86 86 SSW 23 37 30.22 1023 10 16 0.00 0.00
3:58 am 03:58 Clear 21 -6.3 15 -9.6 78 78 SW 29 46 30.19 1022 10 16 0.00 0.00
4:58 am 04:58 Clear 19 -7 13 -10.7 75 75 SW 24 39 30.15 1021 10 16 0.00 0.00
5:58 am 05:58 Clear 19 -7.1 12 -10.9 75 75 SW 24 39 30.16 1021 10 16 0.00 0.00
6:58 am 06:58 Clear 19 -7.3 11 -11.7 71 71 SW 13 20 30.18 1022 10 16 0.00 0.00
7:58 am 07:58 Sunny 19 -7 11 -11.5 71 71 WSW 16 26 30.17 1022 10 16 0.00 0.00
8:58 am 08:58 Sunny 23 -4.9 11 -11.4 61 61 WSW 15 24 30.17 1022 10 16 0.00 0.00
9:58 am 09:58 Sunny 30 -1.2 14 -10.1 51 51 W 15 24 30.15 1021 10 16 0.00 0.00
10:58 am 10:58 Sunny 34 0.9 19 -7.2 55 55 W 13 20 30.13 1020 10 16 0.00 0.00
11:58 am 11:58 Sunny 36 2.4 20 -6.8 51 51 NW 20 31 30.10 1019 10 16 0.00 0.00
12:58 pm 12:58 Sunny 35 1.9 19 -7.3 51 51 NW 25 41 30.10 1019 10 16 0.00 0.00
1:58 pm 13:58 Sunny 37 2.8 18 -8 45 45 NW 17 28 30.09 1019 10 16 0.00 0.00
2:58 pm 14:58 Sunny 36 2.4 18 -7.9 47 47 WNW 15 24 30.10 1019 10 16 0.00 0.00
3:58 pm 15:58 Sunny 35 1.6 19 -7.2 52 52 WNW 14 22 30.11 1020 10 16 0.00 0.00
4:58 pm 16:58 Mostly Cloudy 33 0.5 20 -6.9 58 58 WNW 13 20 30.14 1021 10 16 0.00 0.00
5:58 pm 17:58 Clear 31 -0.6 17 -8.3 56 56 WNW 13 20 30.18 1022 10 16 0.00 0.00
6:58 pm 18:58 Clear 29 -1.9 16 -8.7 60 60 WNW 14 22 30.23 1024 10 16 0.00 0.00
7:58 pm 19:58 Clear 27 -2.9 16 -9.1 63 63 WNW 12 19 30.24 1024 10 16 0.00 0.00
8:58 pm 20:58 Clear 26 -3.3 15 -9.6 62 62 WNW 10 17 30.24 1024 10 16 0.00 0.00
9:58 pm 21:58 Mostly Cloudy 24 -4.2 15 -9.6 66 66 NW 10 17 30.23 1024 10 16 0.00 0.00
10:58 pm 22:58 Mostly Cloudy 22 -5.3 15 -9.3 74 74 WSW 6 9 30.24 1024 10 16 0.00 0.00
11:58 pm 23:58 Mostly Cloudy 23 -4.9 15 -9.5 70 70 SSW 6 9 30.24 1024 10 16 0.00 0.00

Powered by AerisWeather